| time (UTC) | temp F | wind direction | speed knots | gust knots | rain 1hr in | rain 24hr in | rain mn in | humidity % | barometer mb |
| 20260505210030 | 60 | 306 | 0.9 | 6.1 | 0.00 | 0.01 | 0.01 | 83 | 1017.8 |
| 20260505204528 | 58 | 280 | 3.5 | 7.0 | 0.00 | 0.01 | 0.01 | 85 | 1017.9 |
| 20260505203027 | 58 | 360 | 1.7 | 6.1 | 0.00 | 0.01 | 0.01 | 85 | 1018.1 |
| 20260505201526 | 58 | 333 | 1.7 | 5.2 | 0.00 | 0.01 | 0.01 | 85 | 1018.2 |
| 20260505200024 | 58 | 282 | 0.9 | 4.3 | 0.00 | 0.01 | 0.01 | 84 | 1018.1 |
| 20260505194532 | 58 | 270 | 0.9 | 3.5 | 0.00 | 0.01 | 0.01 | 85 | 1017.9 |
| 20260505193035 | 58 | 256 | 0.9 | 4.3 | 0.00 | 0.01 | 0.01 | 85 | 1017.9 |
| 20260505191522 | 57 | 288 | 1.7 | 4.3 | 0.00 | 0.01 | 0.01 | 86 | 1017.9 |
| 20260505190020 | 57 | 292 | 0.9 | 3.5 | 0.00 | 0.01 | 0.01 | 88 | 1017.8 |
| 20260505184515 | 56 | 289 | 1.7 | 3.5 | 0.00 | 0.01 | 0.01 | 89 | 1017.7 |
| 20260505183015 | 56 | 289 | 0.9 | 4.3 | 0.00 | 0.01 | 0.01 | 91 | 1017.7 |
| 20260505181513 | 56 | 290 | 1.7 | 4.3 | 0.00 | 0.01 | 0.01 | 91 | 1017.6 |
| 20260505180011 | 55 | 281 | 1.7 | 3.5 | 0.00 | 0.01 | 0.01 | 91 | 1017.6 |
| 20260505174522 | 55 | 295 | 0.9 | 3.5 | 0.00 | 0.01 | 0.01 | 91 | 1017.6 |
| 20260505173008 | 55 | 299 | 0.9 | 3.5 | 0.00 | 0.01 | 0.01 | 91 | 1017.5 |
| 20260505171508 | 55 | 301 | 0.9 | 3.5 | 0.00 | 0.01 | 0.01 | 91 | 1017.3 |
| 20260505170009 | 55 | 217 | 0.9 | 3.5 | 0.00 | 0.01 | 0.01 | 92 | 1017.2 |
| 20260505164504 | 54 | 230 | 2.6 | 5.2 | 0.00 | 0.01 | 0.01 | 91 | 1017.3 |
| 20260505163003 | 54 | 206 | 0.0 | 4.3 | 0.00 | 0.01 | 0.01 | 92 | 1017.2 |
| 20260505161503 | 54 | 217 | 0.9 | 5.2 | 0.00 | 0.01 | 0.01 | 92 | 1017.2 |
| 20260505153100 | 54 | 147 | 0.0 | 0.0 | 0.00 | 0.02 | 0.01 | 95 | 1017.2 |
| 20260505151557 | 54 | 147 | 0.0 | 0.0 | 0.00 | 0.02 | 0.01 | 96 | 1017.0 |
| 20260505124545 | 52 | 163 | 0.9 | 4.3 | 0.00 | 0.05 | 0.01 | 96 | 1016.3 |
| 20260505123102 | 53 | 146 | 0.9 | 3.5 | 0.01 | 0.05 | 0.01 | 96 | 1016.3 |
| 20260505121542 | 53 | 138 | 0.0 | 0.0 | 0.01 | 0.05 | 0.01 | 96 | 1016.2 |
| 20260505120045 | 53 | 137 | 0.0 | 0.0 | 0.01 | 0.05 | 0.01 | 96 | 1016.1 |
| 20260505114558 | 53 | 138 | 0.0 | 0.0 | 0.01 | 0.05 | 0.01 | 95 | 1016.1 |
| 20260505113041 | 53 | 153 | 0.0 | 0.0 | 0.00 | 0.04 | 0.00 | 95 | 1016.1 |
| 20260505111554 | 53 | 161 | 0.0 | 0.0 | 0.00 | 0.04 | 0.00 | 95 | 1016.1 |
| 20260505101535 | 53 | 136 | 0.0 | 2.6 | 0.00 | 0.05 | 0.00 | 93 | 1015.8 |
| 20260505100036 | 54 | 153 | 0.0 | 3.5 | 0.00 | 0.05 | 0.00 | 93 | 1015.8 |
| 20260505094536 | 54 | 157 | 0.0 | 0.9 | 0.00 | 0.06 | 0.00 | 93 | 1015.8 |
| 20260505093034 | 54 | 140 | 0.0 | 0.9 | 0.00 | 0.06 | 0.00 | 93 | 1015.7 |
| 20260505091535 | 54 | 173 | 0.0 | 4.3 | 0.00 | 0.06 | 0.00 | 93 | 1015.7 |
| 20260505090036 | 54 | 137 | 0.0 | 2.6 | 0.00 | 0.06 | 0.00 | 93 | 1015.6 |
| 20260505084530 | 54 | 152 | 0.9 | 3.5 | 0.00 | 0.07 | 0.00 | 93 | 1015.7 |
| 20260505083040 | 53 | 133 | 0.9 | 4.3 | 0.00 | 0.07 | 0.00 | 93 | 1015.7 |
| 20260505081533 | 54 | 133 | 0.9 | 4.3 | 0.00 | 0.07 | 0.00 | 93 | 1015.8 |
| 20260505080036 | 54 | 192 | 0.9 | 3.5 | 0.00 | 0.07 | 0.00 | 93 | 1016.0 |
| 20260505074526 | 53 | 185 | 0.0 | 4.3 | 0.00 | 0.07 | 0.00 | 93 | 1016.1 |
| 20260505073025 | 53 | 168 | 0.9 | 3.5 | 0.00 | 0.07 | 0.00 | 93 | 1016.0 |
| 20260505071523 | 53 | 153 | 0.0 | 4.3 | 0.00 | 0.07 | 0.00 | 93 | 1016.1 |
| 20260505070022 | 53 | 168 | 0.0 | 4.3 | 0.00 | 0.07 | 0.00 | 94 | 1016.1 |
| 20260505064520 | 53 | 153 | 0.9 | 3.5 | 0.00 | 0.07 | 0.07 | 94 | 1016.0 |
| 20260505063020 | 54 | 158 | 0.0 | 2.6 | 0.00 | 0.07 | 0.07 | 94 | 1016.0 |
| 20260505061623 | 54 | 163 | 0.0 | 2.6 | 0.00 | 0.07 | 0.07 | 94 | 1016.0 |
| 20260505060025 | 54 | 128 | 0.9 | 4.3 | 0.00 | 0.07 | 0.07 | 94 | 1016.1 |
| 20260505054518 | 54 | 213 | 0.9 | 2.6 | 0.00 | 0.08 | 0.07 | 93 | 1016.1 |
| 20260505053018 | 54 | 159 | 1.7 | 7.0 | 0.00 | 0.08 | 0.07 | 93 | 1016.1 |
| 20260505051518 | 54 | 214 | 0.0 | 4.3 | 0.00 | 0.08 | 0.07 | 93 | 1016.0 |
| 20260505041525 | 54 | 169 | 0.0 | 3.5 | 0.00 | 0.08 | 0.07 | 93 | 1015.6 |
| 20260505040015 | 54 | 180 | 0.9 | 4.3 | 0.00 | 0.08 | 0.07 | 92 | 1015.5 |
| 20260505034514 | 54 | 210 | 0.0 | 4.3 | 0.00 | 0.08 | 0.07 | 92 | 1015.4 |
| 20260505033017 | 54 | 192 | 0.9 | 5.2 | 0.00 | 0.08 | 0.07 | 92 | 1015.3 |
| 20260505031513 | 54 | 289 | 1.7 | 4.3 | 0.00 | 0.08 | 0.07 | 92 | 1015.2 |
| 20260505030013 | 54 | 214 | 0.9 | 3.5 | 0.00 | 0.08 | 0.07 | 92 | 1015.0 |
| 20260505024532 | 55 | 230 | 1.7 | 6.1 | 0.00 | 0.08 | 0.07 | 92 | 1015.0 |
| 20260505023011 | 55 | 244 | 0.9 | 5.2 | 0.00 | 0.08 | 0.07 | 91 | 1014.9 |
| 20260505021510 | 55 | 145 | 0.9 | 5.2 | 0.00 | 0.08 | 0.07 | 90 | 1014.8 |
| 20260505020011 | 55 | 202 | 0.9 | 5.2 | 0.00 | 0.08 | 0.07 | 90 | 1014.9 |
| 20260505014510 | 56 | 200 | 0.9 | 3.5 | 0.00 | 0.08 | 0.07 | 90 | 1014.9 |
| 20260505013018 | 56 | 207 | 0.9 | 3.5 | 0.00 | 0.08 | 0.07 | 90 | 1015.2 |
| 20260505011508 | 56 | 212 | 0.9 | 6.1 | 0.00 | 0.08 | 0.07 | 89 | 1015.3 |
| 20260505010009 | 57 | 292 | 2.6 | 5.2 | 0.00 | 0.08 | 0.07 | 88 | 1015.5 |
| 20260505004505 | 57 | 237 | 2.6 | 7.8 | 0.00 | 0.08 | 0.07 | 87 | 1015.5 |
| 20260505003005 | 58 | 222 | 1.7 | 8.7 | 0.00 | 0.08 | 0.07 | 86 | 1015.4 |
| 20260505001505 | 59 | 164 | 1.7 | 7.0 | 0.00 | 0.08 | 0.07 | 84 | 1015.5 |
| 20260505000004 | 59 | 115 | 3.5 | 8.7 | 0.00 | 0.08 | 0.07 | 86 | 1015.5 |
| 20260504234503 | 58 | 188 | 3.5 | 10.4 | 0.00 | 0.08 | 0.07 | 86 | 1015.6 |
| 20260504233104 | 58 | 243 | 2.6 | 8.7 | 0.00 | 0.08 | 0.07 | 87 | 1015.7 |
| 20260504231606 | 58 | 143 | 5.2 | 9.6 | 0.00 | 0.08 | 0.07 | 86 | 1015.7 |
| 20260504230100 | 59 | 200 | 2.6 | 7.8 | 0.00 | 0.08 | 0.07 | 86 | 1015.8 |
| 20260504224557 | 59 | 228 | 2.6 | 7.8 | 0.00 | 0.08 | 0.07 | 85 | 1016.1 |
| 20260504223057 | 58 | 215 | 3.5 | 7.8 | 0.00 | 0.08 | 0.07 | 85 | 1016.2 |
| 20260504221602 | 59 | 145 | 3.5 | 7.8 | 0.00 | 0.08 | 0.07 | 85 | 1016.3 |
| 20260504220054 | 59 | 321 | 1.7 | 6.1 | 0.00 | 0.08 | 0.07 | 86 | 1016.4 |
| 20260504214551 | 58 | 268 | 3.5 | 7.0 | 0.00 | 0.08 | 0.07 | 87 | 1016.6 |
| 20260504213151 | 57 | 264 | 3.5 | 9.6 | 0.00 | 0.08 | 0.07 | 89 | 1016.4 |
| 20260504211552 | 57 | 226 | 3.5 | 7.8 | 0.00 | 0.08 | 0.07 | 89 | 1016.3 |